User: anonymous   Login
Location: Mentone
(34.5413°N, 85.5351°W)
Time: 16:59:43
(UTC-05:00)
Language:

SL-8 R/B - Orbit

View from above orbital plane
View from above orbital plane
View from above satellite
View from above satellite

Ground track
Ground track

The orbit data is extracted from the following two-line orbital elements,

1 33066U 08031G   16207.51700650  .00000087  00000-0  47257-4 0  9994
2 33066  48.4422 198.2915 0007659 180.8179 334.1953 14.69451393434712
Epoch (UTC): 25 July 2016 12:24:29
Eccentricity: 0.0007659
inclination: 48.4422°
perigee height: 657 km
apogee height: 668 km
right ascension of ascending node: 198.2915°
argument of perigee: 180.8179°
revolutions per day: 14.69451393
mean anomaly at epoch: 334.1953°
orbit number at epoch: 43471

The dashed part of the orbit path shows where the satellite is in the earth's shadow,  

DLR